Regional Weather Roundup
Issued by NWS

Home | Current Version | Previous Version | Graphics & Text | Print | Product List | Glossary On
Versions: 1 2 3 4 5 6 7 8 9 10 11 12 13 14 15 16 17 18 19 20 21 22 23 24 25 26 27 28 29 30 31 32 33 34 35 36 37 38 39 40 41 42 43 44 45 46 47 48 49 50
000
ASUS45 KSLC 020210
RWRUT

UTAH REGIONAL WEATHER ROUNDUP
NATIONAL WEATHER SERVICE SALT LAKE CITY UT
800 PM MDT MON JUN 01 2015

UTZ001>011-023>025-020300-

NORTHERN UTAH

CITY           SKY/WX    TMP DP  RH WIND       PRES   REMARKS
BRIGHAM CITY   CLOUDY    71  42  35 E10       29.90R
HILL AFB       MOCLDY    73  39  29 N15G22    29.89R
LOGAN          PTCLDY    63  48  58 N12       29.95R
OGDEN          CLOUDY    75  40  28 N18G26    29.86R
PROVO AIRPORT  PTCLDY    79  41  25 S17       29.86R
SALT LAKE CITY CLOUDY    75  45  34 NW13      29.82S
VERNAL         MOCLDY    78  33  19 W3        29.88S
WENDOVER       PTCLDY    77  39  25 N17G28    29.82R
HEBER CITY     PTCLDY    77  23  13 SW20G29   29.91S
WEST JORDAN    CLEAR     75  43  31 NW22G31   29.85R

$$

UTZ012>022-026-027-020300-

SOUTHERN/CENTRAL UTAH

CITY           SKY/WX    TMP DP  RH WIND       PRES   REMARKS
BLANDING       CLEAR     82  16   8 SW13G21   30.07S
BRYCE CANYON   CLEAR     69  19  15 S21G28    30.15S
CEDAR CITY     CLEAR     74  21  13 SW16G26   29.99R
DELTA          PTCLDY    82  22  10 SW18      29.89S
HANKSVILLE     CLEAR     88  19   8 SW16G28   29.88S
MILFORD        PTCLDY    79  23  12 SW21G28   29.94R
MOAB/CYNLANDS  CLEAR     88  16   7 SW16      29.84R
PRICE          PTCLDY    83  24  11 W10G20    29.94R
ST GEORGE      PTCLDY    91  28  10 S24       29.83S
KANAB          PTCLDY    81  19  10 SW15      30.00R

$$

REGIONAL REPORTS     COLORADO/ARIZONA

CITY           SKY/WX    TMP DP  RH WIND       PRES   REMARKS
CRAIG, CO      PTCLDY    70  46  42 SW5       29.98S
GRAND JUNCTION PTCLDY    86  34  15 S6        29.86F
RIFLE          PTCLDY    81  33  17 S15       29.93F
MONTROSE       PTCLDY    82  32  16 S10       30.00R
CORTEZ         CLEAR     81  33  17 SW8       30.03S
PAGE, AZ       PTCLDY    90  16   6 SW13G21   29.90R
GRAND CANYON   PTCLDY    73  18  12 SW16G23   30.15R
KINGMAN        MOCLDY    86  11   6 S15       29.94R
FLAGSTAFF      PTCLDY    70  22  16 SW16G24   30.21R

$$

REGIONAL REPORTS    NEVADA/IDAHO/WYOMING

CITY           SKY/WX    TMP DP  RH WIND       PRES   REMARKS
LAS VEGAS, NV  PTCLDY    93  13   5 SW20G29   29.77S
ELY            CLEAR     76  27  16 SW17G26   29.96S
ELKO           SUNNY     76  25  15 W15G23    29.90R
POCATELLO, ID  PTCLDY    60  52  74 NE3       29.96R
BURLEY         PTSUNNY   71  46  40 SE6       29.89F
EVANSTON, WY   PTCLDY    64  39  39 N16       30.04R
ROCK SPRINGS   MOCLDY    63  37  38 N6        30.02R
KEMMERER       MOCLDY    57  36  44 NW22G33   30.06R

$$


USA.gov is the U.S. government's official web portal to all federal, state and local government web resources and services.